Location: Champs
(48.8539°N, 2.6040°E)
Time: 05:50:53
(UTC+00:00)

Cosmos 1953 - Pass Details

Date: 01 June 2022
Orbit: 533 x 555 km, 82.5° (Epoch: 03 July)

Event Time Altitude Azimuth Distance (km) Brightness Sun altitude
Rises 23:01:38 0° 355° (N) 2,722 7.5 -18.3°
Reaches altitude 10° 23:03:54 10° 3° (N) 1,820 6.2 -18.3°
Maximum altitude 23:07:43 43° 75° (ENE) 771 3.0 -18.4°
Enters shadow 23:08:57 33° 120° (ESE) 931 3.1 -18.5°
